sat.trackr.live / text

‹ back to catalog

STARLINK-37315

NORAD 68816 · 2026-089Q

PAYLOAD ACTIVE UNKNOWN

§ Identity

Operator
Country
US
Launch date
2026-04-23
Launch site
AFWTR
Launch vehicle
Mass (kg)
RCS (m²)

Purposes: comms

External: N2YO · Heavens-Above · Gunter

§ Orbital elements

Epoch: 2026-05-25T02:40:07.681728Z

Period
91.42 min
Inclination
97.2853°
Eccentricity
0.0001470
Mean motion
15.75178727 rev/d
Perigee alt
343.1 km
Apogee alt
345.1 km
Semi-major
6,722.3 km
B*
1.2682e-3
RAAN
351.7658°
Arg perigee
93.5252°
Mean anomaly
266.6181°
Rev number
506

§ Raw data

STARLINK-373151 68816U 26089Q   26145.11120002  .00193278  00000+0  12682-2 0  99992 68816  97.2853 351.7658 0001470  93.5252 266.6181 15.75178727  5069

JSON: /api/v1/satellites/68816 · /tle

For live sub-satellite position, see the globe view (requires WebGL).

§ Visibility from observer

Set your observer location to see the next 7 days of passes ≥ 10°. The values pass through the URL so the page stays shareable.

No JS? Fill the form by hand. The geolocation button needs JavaScript.